User: anonymous   Login
Location: Unspecified
(0.0000°N, 0.0000°E)
Time: 04:37:02
(UTC+00:00)
Language:

ALSAT 1N - Orbit

View from above orbital plane
View from above orbital plane
View from above satellite
View from above satellite

Ground track
Ground track

The orbit data is extracted from the following two-line orbital elements,

1 41789U 16059G   17324.79243517  .00000151  00000-0  37845-4 0  9993
2 41789  98.1489  25.1935 0029128  25.5672 334.6938 14.64101896 61524
Epoch (UTC): 20 November 2017 19:01:06
Eccentricity: 0.0029128
inclination: 98.1489°
perigee height: 659 km
apogee height: 700 km
right ascension of ascending node: 25.1935°
argument of perigee: 25.5672°
revolutions per day: 14.64101896
mean anomaly at epoch: 334.6938°
orbit number at epoch: 6152

The dashed part of the orbit path shows where the satellite is in the earth's shadow,  

DLR